Regional Weather Roundup
Issued by NWS

Home | Current Version | Previous Version | Text Only | Print | Product List | Glossary On
Versions: 1 2 3 4 5 6 7 8 9 10 11 12 13 14 15 16 17 18 19 20 21 22 23 24 25 26 27 28 29 30 31 32 33 34 35 36 37 38 39 40 41 42 43 44 45 46 47 48 49 50
020
ASUS44 KJAN 141910
RWRMS

MISSISSIPPI HOURLY WEATHER ROUNDUP
NATIONAL WEATHER SERVICE JACKSON MS
100 PM CST SUN FEB 14 2016

NOTE: "FAIR: INDICATES FEW OR NO CLOUDS BELOW 12,000 FEET WITH NO
SIGNIFICANT WEATHER AND/OR OBSTRUCTIONS TO VISIBILITY.

MSZ001>002-007>008-010>013-018>021-025>028-034>036-142000-
NORTHWEST MISSISSIPPI

CITY           SKY/WX    TMP DP  RH WIND       PRES   REMARKS
CLEVELAND      CLOUDY    53  30  42 S15       30.07F
GREENWOOD      CLOUDY    56  24  29 S14       30.08F
GREENVILLE     LGT RAIN  55  30  38 S15       30.06F
OLIVE BRANCH   CLOUDY    46  21  36 S14       30.04F
TUNICA         CLOUDY    50  27  40 S16       30.06F
$$

MSZ003>006-009-014>017-022>024-029>033-037>039-142000-
NORTHEAST MISSISSIPPI

CITY           SKY/WX    TMP DP  RH WIND       PRES   REMARKS
COLUMBUS AFB   CLOUDY    48  18  30 S14       30.13F
CORINTH        MOCLDY    45  14  29 S13       30.09F
GOLDN TRIANGLE CLOUDY    48  19  32 S12       30.15F
STARKVILLE     CLOUDY    46  21  36 SE9       30.13F
TUPELO         CLOUDY    47  16  29 SE15      30.12F
$$

MSZ040-058-142000-
CENTRAL MISSISSIPPI

CITY           SKY/WX    TMP DP  RH WIND       PRES   REMARKS
JACKSON INTL   CLOUDY    61  35  37 S14       30.09F
JACKSON HAWKNS CLOUDY    60  35  39 S14       30.09F
MERIDIAN KEY   MOSUNNY   60  24  25 S13       30.15F
MERIDIAN NAS   SUNNY     57  18  21 VRB7G18   30.16F
VICKSBURG      MOSUNNY   64  40  41 S14G22    30.08F
$$

MSZ059>079-142000-
SOUTH MISSISSIPPI

CITY           SKY/WX    TMP DP  RH WIND       PRES   REMARKS
BROOKHAVEN     MOCLDY    75  54  46 SE13      30.12F
HATTIESBURG    SUNNY     66  42  41 S13       30.16F
MCCOMB         CLOUDY    65  44  46 SE15G28   30.11F
NATCHEZ        CLOUDY    64  45  48 S14       30.08F
PINE BELT      SUNNY     64  39  39 S10G18    30.16F
$$

MSZ080>082-142000-
COASTAL MISSISSIPPI

CITY           SKY/WX    TMP DP  RH WIND       PRES   REMARKS
BAY ST LOUIS   MOSUNNY   64  43  45 S17       30.18F
BILOXI         SUNNY     65  49  58 SE15G21   30.18F
PASCAGOULA     SUNNY     64  46  52 SE15G24   30.20F
GULFPORT       MOSUNNY   64  48  56 SE17      30.18F
$$




USA.gov is the U.S. government's official web portal to all federal, state and local government web resources and services.